Regional Weather Roundup
Issued by NWS Nashville, TN

Home | Current Version | Previous Version | Text Only | Print | Product List | Glossary On
Versions: 1 2 3 4 5 6 7 8 9 10 11 12 13 14 15 16 17 18 19 20 21 22 23 24 25 26 27 28 29 30 31 32 33 34 35 36 37 38 39 40 41 42 43 44 45 46 47 48 49 50
000
ASUS44 KOHX 181210
RWROHX
MIDDLE TENNESSEE HOURLY WEATHER ROUNDUP
NATIONAL WEATHER SERVICE NASHVILLE TN
600 AM CST THU JAN 18 2018

NOTE: "FAIR" INDICATES FEW OR NO CLOUDS BELOW 12,000 FEET WITH
NO SIGNIFICANT WEATHER AND/OR OBSTRUCTIONS TO VISIBILITY.

* THESE REPORTS ARE NOT UNDER NWS QUALITY CONTROL AND MAY NOT
  REPORT WEATHER SUCH AS PRECIPITATION AND FOG.


TNZ005>011-023>034-057-059-062>066-078-080-181300
...NORTHERN MIDDLE TENNESSEE...

CITY           SKY/WX    TMP DP  RH WIND       PRES   REMARKS
CLARKSVILLE      N/A     10   4  76 SW3       30.52S
CROSSVILLE       N/A      4   0  83 CALM      30.42R
GALLATIN       CLEAR      5   1  85 CALM      30.57S
DICKSON          N/A      8   6  92 CALM      30.49S
NASHVILLE        N/A      9   5  84 S3        30.54S
PORTLAND       CLEAR      7   3  85 S7        30.51R WCI  -5
SMYRNA           N/A      4   0  83 CALM      30.56S
SPARTA         CLOUDY     3   1  92 CALM      30.50R
SPRINGFIELD    CLEAR      7   5  92 S5        30.50R WCI  -2
WEST NASHVILLE CLEAR     10   7  85 CALM      30.53R
$$
TNZ056-058-060-061-075>077-079-093>097-181300
...SOUTHERN MIDDLE TENNESSEE...

CITY           SKY/WX    TMP DP  RH WIND       PRES   REMARKS
COLUMBIA       CLEAR      7   7 100 CALM      30.52S
FAYETTEVILLE   CLEAR      9   7  92 CALM      30.50R
MCMINNVILLE    CLEAR      5   1  85 CALM      30.51R
PULASKI        CLEAR      7   5  92 CALM      30.53S
SHELBYVILLE    CLEAR      3   1  92 E5        30.52S WCI  -6
TULLAHOMA      CLEAR      5   1  85 CALM      30.49S
WINCHESTER     CLEAR      7   1  78 CALM      30.51S
$$


...KEY TO REMARKS...
VSB - VISIBILITY IN MILES
WCI - WIND CHILL INDEX
HX  - HEAT INDEX




USA.gov is the U.S. government's official web portal to all federal, state and local government web resources and services.